Location: Bessat
(45.8735°N, 1.9924°E)
Time: 21:09:42
(UTC+00:00)

Cosmos 1437 Rocket - Pass Details

Date: 11 May 2021
Orbit: 501 x 565 km, 81.2° (Epoch: 24 June)

Event Time Altitude Azimuth Distance (km) Brightness Sun altitude
Rises 19:57:26 0° 196° (SSW) 2,631 6.1 -7.5°
Reaches altitude 10° 19:59:33 10° 199° (SSW) 1,759 5.2 -7.8°
Maximum altitude 20:03:24 67° 282° (WNW) 582 3.2 -8.3°
Drops below altitude 10° 20:07:22 10° 6° (N) 1,813 5.9 -8.9°
Sets 20:09:35 0° 9° (N) 2,721 6.8 -9.2°
